When you browse on this site, cookies collect data to enhance your experience and personalize the content and advertising you see.
Visit our Privacy Policy to learn more. By continuing to use the site, you agree to this use of cookies and data.

Hourly Weather Shusha

Today, 2 July, Thursday

Time Temperature Precipitation Wind Pressure Humidity
00:00 +16°C° 0 mm 1 mps 660 mmHg 61%
01:00 +16°C° 0 mm 1 mps 659 mmHg 61%
02:00 +16°C° 0 mm 1 mps 659 mmHg 60%
03:00 +15°C° 0 mm 1 mps 659 mmHg 59%
04:00 +16°C° 0 mm 1 mps 660 mmHg 59%
05:00 +18°C° 0 mm 1 mps 660 mmHg 58%
06:00 +19°C° 0 mm 1 mps 660 mmHg 57%
07:00 +20°C° 0 mm 1 mps 661 mmHg 53%
08:00 +20°C° 0 mm 2 mps 661 mmHg 48%
09:00 +21°C° 0 mm 2 mps 662 mmHg 42%
10:00 +22°C° 0 mm 3 mps 662 mmHg 42%
11:00 +24°C° 0 mm 3 mps 662 mmHg 42%
12:00 +25°C° 0 mm 3 mps 662 mmHg 41%
13:00 +25°C° 0 mm 3 mps 662 mmHg 42%
14:00 +24°C° 0 mm 3 mps 661 mmHg 42%
15:00 +25°C° 0 mm 4 mps 661 mmHg 41%
16:00 +24°C° 0 mm 3 mps 661 mmHg 44%
17:00 +22°C° 0 mm 3 mps 661 mmHg 47%
18:00 +21°C° 0 mm 2 mps 661 mmHg 50%
19:00 +20°C° 0 mm 2 mps 661 mmHg 55%
20:00 +19°C° 0 mm 1 mps 661 mmHg 60%
21:00 +18°C° 0 mm 1 mps 661 mmHg 65%
22:00 +16°C° 0 mm 1 mps 661 mmHg 66%
23:00 +16°C° 0 mm 1 mps 661 mmHg 66%

Tomorrow, 3 July, Friday

Time Temperature Precipitation Wind Pressure Humidity
00:00 +16°C° 0 mm 1 mps 660 mmHg 67%
01:00 +15°C° 0 mm 1 mps 660 mmHg 68%
02:00 +15°C° 0 mm 1 mps 660 mmHg 68%
03:00 +15°C° 0 mm 1 mps 660 mmHg 69%
04:00 +16°C° 0 mm 1 mps 660 mmHg 67%
05:00 +16°C° 0 mm 1 mps 661 mmHg 66%
06:00 +18°C° 0 mm 1 mps 661 mmHg 65%
07:00 +20°C° 0 mm 1 mps 661 mmHg 60%
08:00 +20°C° 0 mm 2 mps 662 mmHg 55%
09:00 +21°C° 0 mm 2 mps 662 mmHg 50%
10:00 +23°C° 0 mm 2 mps 662 mmHg 48%
11:00 +24°C° 0 mm 2 mps 662 mmHg 47%
12:00 +25°C° 0 mm 2 mps 662 mmHg 45%
13:00 +26°C° 0 mm 2 mps 662 mmHg 45%
14:00 +26°C° 0 mm 3 mps 661 mmHg 44%
15:00 +26°C° 0 mm 3 mps 661 mmHg 44%
16:00 +26°C° 0 mm 2 mps 661 mmHg 46%
17:00 +25°C° 0 mm 2 mps 661 mmHg 49%
18:00 +25°C° 0 mm 2 mps 661 mmHg 51%
19:00 +23°C° 0 mm 2 mps 661 mmHg 54%
20:00 +21°C° 0 mm 1 mps 661 mmHg 58%
21:00 +19°C° 0 mm 1 mps 661 mmHg 61%
22:00 +19°C° 0 mm 1 mps 660 mmHg 62%
23:00 +18°C° 0 mm 2 mps 660 mmHg 62%

Day after tomorrow, 4 July, Saturday

Time Temperature Precipitation Wind Pressure Humidity
00:00 +17°C° 0 mm 2 mps 660 mmHg 63%
01:00 +17°C° 0 mm 2 mps 660 mmHg 62%
02:00 +17°C° 0 mm 2 mps 660 mmHg 61%
03:00 +18°C° 0 mm 1 mps 660 mmHg 60%
04:00 +18°C° 0 mm 1 mps 660 mmHg 59%
05:00 +19°C° 0 mm 1 mps 661 mmHg 58%
06:00 +20°C° 0 mm 1 mps 661 mmHg 57%
07:00 +21°C° 0 mm 1 mps 661 mmHg 51%
08:00 +23°C° 0 mm 1 mps 661 mmHg 45%
09:00 +24°C° 0 mm 2 mps 661 mmHg 40%
10:00 +25°C° 0 mm 2 mps 661 mmHg 39%
11:00 +26°C° 0 mm 2 mps 661 mmHg 37%
12:00 +27°C° 0 mm 3 mps 661 mmHg 36%
13:00 +28°C° 0 mm 3 mps 661 mmHg 36%
14:00 +28°C° 0 mm 3 mps 661 mmHg 36%
15:00 +28°C° 0 mm 3 mps 660 mmHg 36%
16:00 +28°C° 0 mm 3 mps 660 mmHg 39%
17:00 +27°C° 0 mm 2 mps 660 mmHg 41%
18:00 +27°C° 0 mm 2 mps 660 mmHg 43%
19:00 +24°C° 0 mm 2 mps 660 mmHg 44%
20:00 +21°C° 0 mm 2 mps 660 mmHg 44%
21:00 +20°C° 0 mm 1 mps 659 mmHg 44%
22:00 +19°C° 0 mm 2 mps 659 mmHg 43%
23:00 +19°C° 0 mm 2 mps 659 mmHg 43%

5 July, Sunday

Time Temperature Precipitation Wind Pressure Humidity
00:00 +18°C° 0 mm 2 mps 659 mmHg 42%
01:00 +18°C° 0 mm 2 mps 659 mmHg 41%
02:00 +18°C° 0 mm 2 mps 658 mmHg 41%
03:00 +18°C° 0 mm 1 mps 658 mmHg 40%
04:00 +19°C° 0 mm 1 mps 658 mmHg 41%
05:00 +20°C° 0 mm 1 mps 659 mmHg 42%
06:00 +20°C° 0 mm 1 mps 659 mmHg 43%
07:00 +22°C° 0 mm 1 mps 659 mmHg 38%
08:00 +23°C° 0 mm 2 mps 660 mmHg 32%
09:00 +25°C° 0 mm 2 mps 660 mmHg 27%
10:00 +26°C° 0 mm 2 mps 660 mmHg 27%
11:00 +27°C° 0 mm 2 mps 660 mmHg 28%
12:00 +27°C° 0 mm 3 mps 660 mmHg 28%
13:00 +28°C° 0 mm 3 mps 659 mmHg 29%
14:00 +28°C° 0 mm 3 mps 659 mmHg 30%
15:00 +28°C° 0 mm 3 mps 659 mmHg 31%
16:00 +27°C° 0 mm 3 mps 659 mmHg 33%
17:00 +27°C° 0 mm 3 mps 659 mmHg 34%
18:00 +26°C° 0 mm 3 mps 658 mmHg 36%
19:00 +24°C° 0 mm 2 mps 658 mmHg 37%
20:00 +21°C° 0 mm 2 mps 658 mmHg 37%
21:00 +20°C° 0 mm 1 mps 658 mmHg 37%
22:00 +19°C° 0 mm 2 mps 658 mmHg 38%
23:00 +19°C° 0 mm 2 mps 657 mmHg 39%

6 July, Monday

Time Temperature Precipitation Wind Pressure Humidity
00:00 +18°C° 0 mm 2 mps 657 mmHg 40%
01:00 +18°C° 0 mm 2 mps 657 mmHg 39%
02:00 +19°C° 0 mm 1 mps 657 mmHg 38%
03:00 +19°C° 0 mm 1 mps 657 mmHg 37%
04:00 +19°C° 0 mm 1 mps 658 mmHg 38%
05:00 +20°C° 0 mm 1 mps 658 mmHg 40%
06:00 +21°C° 0 mm 1 mps 658 mmHg 41%
07:00 +23°C° 0 mm 2 mps 659 mmHg 36%
08:00 +24°C° 0 mm 2 mps 659 mmHg 31%
09:00 +26°C° 0 mm 2 mps 660 mmHg 26%
10:00 +27°C° 0 mm 2 mps 660 mmHg 26%
11:00 +28°C° 0 mm 2 mps 660 mmHg 26%
12:00 +29°C° 0 mm 3 mps 660 mmHg 26%
13:00 +29°C° 0 mm 3 mps 659 mmHg 26%
14:00 +29°C° 0 mm 3 mps 659 mmHg 27%
15:00 +30°C° 0 mm 4 mps 659 mmHg 27%
16:00 +29°C° 0 mm 3 mps 659 mmHg 30%
17:00 +28°C° 0 mm 3 mps 659 mmHg 33%
18:00 +28°C° 0 mm 2 mps 658 mmHg 36%
19:00 +26°C° 0 mm 2 mps 658 mmHg 37%
20:00 +24°C° 0 mm 2 mps 658 mmHg 39%
21:00 +21°C° 0 mm 2 mps 658 mmHg 40%
22:00 +20°C° 0 mm 2 mps 658 mmHg 41%
23:00 +20°C° 0 mm 2 mps 658 mmHg 41%

7 July, Tuesday

Time Temperature Precipitation Wind Pressure Humidity
00:00 +19°C° 0 mm 2 mps 657 mmHg 41%
01:00 +19°C° 0 mm 2 mps 657 mmHg 41%
02:00 +19°C° 0 mm 2 mps 657 mmHg 41%
03:00 +18°C° 0 mm 2 mps 657 mmHg 41%
04:00 +19°C° 0 mm 2 mps 657 mmHg 42%
05:00 +20°C° 0 mm 2 mps 658 mmHg 43%
06:00 +20°C° 0 mm 2 mps 658 mmHg 44%
07:00 +23°C° 0 mm 2 mps 658 mmHg 39%
08:00 +25°C° 0 mm 2 mps 659 mmHg 34%
09:00 +27°C° 0 mm 2 mps 659 mmHg 28%
10:00 +28°C° 0 mm 2 mps 659 mmHg 27%
11:00 +29°C° 0 mm 3 mps 659 mmHg 26%
12:00 +30°C° 0 mm 3 mps 659 mmHg 25%
13:00 +30°C° 0 mm 3 mps 659 mmHg 25%
14:00 +30°C° 0 mm 3 mps 658 mmHg 25%
15:00 +31°C° 0 mm 3 mps 658 mmHg 25%
16:00 +30°C° 0 mm 3 mps 658 mmHg 28%
17:00 +30°C° 0 mm 2 mps 658 mmHg 30%
18:00 +29°C° 0 mm 2 mps 657 mmHg 33%
19:00 +27°C° 0 mm 2 mps 657 mmHg 35%
20:00 +25°C° 0 mm 2 mps 657 mmHg 37%
21:00 +22°C° 0 mm 1 mps 657 mmHg 38%
22:00 +21°C° 0 mm 2 mps 656 mmHg 39%
23:00 +21°C° 0 mm 2 mps 656 mmHg 39%
Show more